Location: Unspecified
(0.0000°N, 0.0000°E)
Time: 06:01:58
(UTC+00:00)

Tiros 1 - Pass Details

Date: 01 October 2020
Orbit: 630 x 663 km, 48.4° (Epoch: 28 October)

Event Time Altitude Azimuth Distance (km) Brightness Sun altitude
Rises 21:28:31 0° 339° (NNW) 2,977 - -54.6°
Reaches altitude 10° 21:31:06 10° 350° (N) 2,067 - -55.3°
Maximum altitude 21:35:15 29° 51° (NE) 1,195 - -56.3°
Drops below altitude 10° 21:39:24 10° 111° (ESE) 2,066 - -57.3°
Sets 21:41:58 0° 122° (ESE) 2,975 - -58.0°
